Wasilla, AK

8:12 AM AKST on December 10, 2016 (GMT -0900)
Wasilla

Weather History for PAWS - December, 2013

Change the Weather History Date:

Sunday, December 15, 2013

  Actual Average Record
Temperature  
Mean Temperature 9 °F -  
Max Temperature 17 °F 25 °F 46 °F (1986)
Min Temperature 1 °F 9 °F -28 °F (1964)
Degree Days  
Heating Degree Days 56    
Moisture  
Dew Point 6 °F    
Average Humidity 79    
Maximum Humidity 86    
Minimum Humidity 72    
Precipitation  
Precipitation 0.00 in - - ()
Sea Level Pressure  
Sea Level Pressure 29.52 in    
Wind  
Wind Speed 2 mph (WSW)    
Max Wind Speed 7 mph    
Max Gust Speed -    
Visibility 8 miles    
Events      
Averages and records for this station are not official NWS values.
T = Trace of Precipitation, MM = Missing Value Source: NWS Daily Summary

Daily Weather History Graph

Daily Weather History Graph

Search for Another Location

Airport or City:

Trip Planner

Search our weather history database for the weather conditions in past years. The results will help you decide how hot, cold, wet, or windy it might be!

Date:

Astronomy

Dec. 15, 2013 Rise Set
Actual Time 10:12 AM AKST 3:34 PM AKST
Civil Twilight 9:08 AM AKST 4:38 PM AKST
Nautical Twilight 8:08 AM AKST 5:38 PM AKST
Astronomical Twilight 7:13 AM AKST 6:33 PM AKST
Moon 3:11 PM AKST (12/15) 8:10 AM AKST (12/15)
Length of Visible Light 7h 29m
Length of Day
5h 22m
Waxing Gibbous, 98% of the Moon is Illuminated
Dec 15
Waxing Gibbous
Dec 17
Full
Dec 25
Last Quarter
Jan 1
New
Jan 7
First Quarter

Hourly Weather History & Observations

Time (AKST) Temp. Windchill Dew Point Humidity Pressure Visibility Wind Dir Wind Speed Gust Speed Precip Events Conditions
12:16 AM 15.8 °F 10.2 °F 10.4 °F 79% 29.09 in 8.0 mi ENE 3.5 mph - N/A   Overcast
12:36 AM 15.8 °F - 10.4 °F 79% 29.11 in 10.0 mi Calm Calm - N/A   Overcast
12:56 AM 15.8 °F - 10.4 °F 79% 29.13 in 4.0 mi Calm Calm - N/A   Overcast
1:16 AM 15.8 °F - 12.2 °F 86% 29.14 in 4.0 mi Calm Calm - N/A   Overcast
1:36 AM 15.8 °F - 10.4 °F 79% 29.15 in 5.0 mi Calm Calm - N/A   Overcast
1:56 AM 15.8 °F - 12.2 °F 86% 29.16 in 9.0 mi Calm Calm - N/A   Overcast
2:16 AM 15.8 °F - 12.2 °F 86% 29.17 in 10.0 mi Calm Calm - N/A   Overcast
2:36 AM 15.8 °F - 10.4 °F 79% 29.19 in 8.0 mi Calm Calm - N/A   Overcast
2:56 AM 15.8 °F 10.2 °F 10.4 °F 79% 29.22 in 10.0 mi NE 3.5 mph - N/A   Overcast
3:16 AM 15.8 °F 8.6 °F 10.4 °F 79% 29.24 in 9.0 mi ESE 4.6 mph - N/A   Overcast
3:36 AM 15.8 °F 10.2 °F 12.2 °F 86% 29.25 in 3.0 mi South 3.5 mph - N/A   Overcast
3:56 AM 15.8 °F - 10.4 °F 79% 29.26 in 4.0 mi Calm Calm - N/A   Overcast
4:16 AM 15.8 °F - 10.4 °F 79% 29.27 in 3.0 mi Calm Calm - N/A   Overcast
4:36 AM 15.8 °F - 10.4 °F 79% 29.28 in 5.0 mi Calm Calm - N/A   Overcast
4:56 AM 15.8 °F - 10.4 °F 79% 29.29 in 3.0 mi Calm Calm - N/A   Overcast
5:16 AM 15.8 °F - 10.4 °F 79% 29.29 in 7.0 mi Calm Calm - N/A   Overcast
5:36 AM 17.6 °F 12.3 °F 12.2 °F 79% 29.31 in 10.0 mi ESE 3.5 mph - N/A   Overcast
5:56 AM 15.8 °F - 12.2 °F 86% 29.31 in 10.0 mi Calm Calm - N/A   Overcast
6:16 AM 15.8 °F 10.2 °F 12.2 °F 86% 29.32 in 10.0 mi South 3.5 mph - N/A   Overcast
6:36 AM 17.6 °F - 12.2 °F 79% 29.33 in 5.0 mi Calm Calm - N/A   Overcast
6:56 AM 15.8 °F - 12.2 °F 86% 29.34 in 9.0 mi Calm Calm - N/A   Overcast
7:16 AM 15.8 °F - 12.2 °F 86% 29.35 in 8.0 mi Calm Calm - N/A   Overcast
7:36 AM 15.8 °F 7.2 °F 10.4 °F 79% 29.36 in 10.0 mi West 5.8 mph - N/A   Overcast
7:56 AM 14.0 °F 5.1 °F 8.6 °F 79% 29.37 in 10.0 mi West 5.8 mph - N/A   Overcast
8:16 AM 14.0 °F 3.9 °F 8.6 °F 79% 29.38 in 10.0 mi West 6.9 mph - N/A   Overcast
8:36 AM 12.2 °F 1.7 °F 8.6 °F 85% 29.39 in 10.0 mi West 6.9 mph - N/A   Overcast
8:56 AM 12.2 °F 1.7 °F 6.8 °F 79% 29.41 in 10.0 mi West 6.9 mph - N/A   Overcast
9:16 AM 12.2 °F - 6.8 °F 79% 29.42 in 10.0 mi Calm Calm - N/A   Overcast
9:36 AM 12.2 °F 6.1 °F 6.8 °F 79% 29.43 in 10.0 mi WSW 3.5 mph - N/A   Overcast
9:56 AM 12.2 °F 6.1 °F 6.8 °F 79% 29.45 in 10.0 mi WSW 3.5 mph - N/A   Overcast
10:16 AM 12.2 °F - 6.8 °F 79% 29.46 in 10.0 mi Calm Calm - N/A   Overcast
10:36 AM 12.2 °F - 6.8 °F 79% 29.47 in 10.0 mi Calm Calm - N/A   Overcast
10:56 AM 12.2 °F - 6.8 °F 79% 29.49 in 10.0 mi Calm Calm - N/A   Overcast
11:16 AM 12.2 °F - 6.8 °F 79% 29.50 in 10.0 mi Calm Calm - N/A   Overcast
11:36 AM 12.2 °F - 8.6 °F 85% 29.51 in 9.0 mi Calm Calm - N/A   Overcast
11:56 AM 12.2 °F 6.1 °F 8.6 °F 85% 29.52 in 3.0 mi West 3.5 mph - N/A   Overcast
12:16 PM 14.0 °F 8.2 °F 8.6 °F 79% 29.53 in 4.0 mi West 3.5 mph - N/A   Overcast
12:36 PM 14.0 °F - 8.6 °F 79% 29.54 in 5.0 mi Calm Calm - N/A   Overcast
12:56 PM 14.0 °F - 8.6 °F 79% 29.55 in 7.0 mi Calm Calm - N/A   Overcast
1:16 PM 14.0 °F 8.2 °F 8.6 °F 79% 29.56 in 8.0 mi SW 3.5 mph - N/A   Overcast
1:36 PM 14.0 °F 8.2 °F 8.6 °F 79% 29.57 in 7.0 mi WSW 3.5 mph - N/A   Overcast
1:56 PM 12.2 °F 4.3 °F 6.8 °F 79% 29.58 in 5.0 mi West 4.6 mph - N/A   Overcast
2:16 PM 12.2 °F 6.1 °F 6.8 °F 79% 29.59 in 8.0 mi West 3.5 mph - N/A   Overcast
2:36 PM 12.2 °F - 6.8 °F 79% 29.60 in 7.0 mi Calm Calm - N/A   Overcast
2:56 PM 12.2 °F - 6.8 °F 79% 29.60 in 8.0 mi Calm Calm - N/A   Overcast
3:16 PM 12.2 °F 6.1 °F 6.8 °F 79% 29.62 in 8.0 mi West 3.5 mph - N/A   Overcast
3:36 PM 12.2 °F 6.1 °F 6.8 °F 79% 29.63 in 7.0 mi SW 3.5 mph - N/A   Overcast
3:56 PM 10.4 °F 2.2 °F 6.8 °F 85% 29.64 in 5.0 mi SW 4.6 mph - N/A   Overcast
4:16 PM 10.4 °F 4.0 °F 3.2 °F 73% 29.65 in 8.0 mi SW 3.5 mph - N/A   Overcast
4:36 PM 10.4 °F - 3.2 °F 73% 29.67 in 8.0 mi Calm Calm - N/A   Overcast
4:56 PM 10.4 °F 2.2 °F 3.2 °F 73% 29.68 in 9.0 mi SW 4.6 mph - N/A   Overcast
5:16 PM 8.6 °F 2.0 °F 3.2 °F 79% 29.69 in 10.0 mi SW 3.5 mph - N/A   Overcast
5:36 PM 8.6 °F 2.0 °F 1.4 °F 73% 29.71 in 9.0 mi SW 3.5 mph - N/A   Overcast
5:56 PM 8.6 °F - 1.4 °F 73% 29.71 in 8.0 mi Calm Calm - N/A   Overcast
6:16 PM 6.8 °F - 1.4 °F 79% 29.72 in 7.0 mi Calm Calm - N/A   Overcast
6:36 PM 6.8 °F - -0.4 °F 72% 29.74 in 10.0 mi Calm Calm - N/A   Overcast
6:56 PM 6.8 °F - -0.4 °F 72% 29.75 in 10.0 mi Calm Calm - N/A   Overcast
7:16 PM 5.0 °F - -0.4 °F 78% 29.76 in 10.0 mi Calm Calm - N/A   Overcast
7:36 PM 5.0 °F - -0.4 °F 78% 29.77 in 10.0 mi Calm Calm - N/A   Overcast
7:56 PM 3.2 °F - -2.2 °F 78% 29.78 in 10.0 mi Calm Calm - N/A   Overcast
8:16 PM 3.2 °F - -2.2 °F 78% 29.79 in 10.0 mi Calm Calm - N/A   Overcast
8:36 PM 3.2 °F - -2.2 °F 78% 29.80 in 10.0 mi Calm Calm - N/A   Overcast
8:56 PM 3.2 °F - -4.0 °F 72% 29.81 in 10.0 mi Calm Calm - N/A   Overcast
9:16 PM 3.2 °F - -2.2 °F 78% 29.82 in 10.0 mi Calm Calm - N/A   Overcast
9:36 PM 3.2 °F - -2.2 °F 78% 29.83 in 10.0 mi Calm Calm - N/A   Overcast
9:56 PM 1.4 °F -6.2 °F -4.0 °F 78% 29.84 in 10.0 mi WSW 3.5 mph - N/A   Overcast
10:16 PM 1.4 °F - -4.0 °F 78% 29.85 in 10.0 mi Calm Calm - N/A   Overcast
10:36 PM 3.2 °F - -2.2 °F 78% 29.86 in 10.0 mi Calm Calm - N/A   Overcast
10:56 PM 3.2 °F - -2.2 °F 78% 29.86 in 10.0 mi Calm Calm - N/A   Overcast
11:16 PM 3.2 °F - -2.2 °F 78% 29.87 in 10.0 mi Calm Calm - N/A   Overcast
11:36 PM 3.2 °F - -0.4 °F 85% 29.88 in 10.0 mi Calm Calm - N/A   Overcast
11:56 PM 6.8 °F - -0.4 °F 72% 29.89 in 10.0 mi Calm Calm - N/A   Overcast